This is the latest recevied weather packets stored in our database for station/object WA6OOO. If no packets are shown the sender has not sent any weather packets the latest 10 day(s).
| Time | Temp. | Humidity | Pressure | Rain* | Wind** | Luminosity | Snow |
|---|---|---|---|---|---|---|---|
| 1777166702 | 13.89° C | 81% | 1014.2 hPa | 0 mm | - | 43 W/m² | - |
| 1777166398 | 13.89° C | 81% | 1014.2 hPa | 0 mm | - | 48 W/m² | - |
| 1777166094 | 13.89° C | 81% | 1014.3 hPa | 0 mm | - | 67 W/m² | - |
| 1777165791 | 13.89° C | 80% | 1014.5 hPa | 0 mm | - | 78 W/m² | - |
| 1777165488 | 14.44° C | 80% | 1014.2 hPa | 0 mm | - | 82 W/m² | - |
| 1777165184 | 14.44° C | 78% | 1014.5 hPa | 0 mm | - | 92 W/m² | - |
| 1777164880 | 14.44° C | 78% | 1014.3 hPa | 0 mm | - | 101 W/m² | - |
| 1777164578 | 14.44° C | 78% | 1014.3 hPa | 0 mm | - | 96 W/m² | - |
| 1777164273 | 14.44° C | 77% | 1014.2 hPa | 0 mm | - | 89 W/m² | - |
| 1777163968 | 14.44° C | 76% | 1014.5 hPa | 0 mm | - | 80 W/m² | - |
| 1777163668 | 14.44° C | 77% | 1014.5 hPa | 0 mm | - | 89 W/m² | - |
| 1777163362 | 15° C | 76% | 1014.6 hPa | 0 mm | - | 93 W/m² | - |
| 1777163060 | 15° C | 74% | 1014.2 hPa | 0 mm | - | 91 W/m² | - |
| 1777162759 | 15° C | 73% | 1014.5 hPa | 0 mm | - | 119 W/m² | - |
| 1777162455 | 15° C | 72% | 1014.6 hPa | 0 mm | - | 109 W/m² | - |
| 1777162154 | 15° C | 72% | 1014.3 hPa | 0 mm | - | 124 W/m² | - |
| 1777161850 | 15.56° C | 71% | 1014.3 hPa | 0 mm | - | 175 W/m² | - |
| 1777161546 | 15.56° C | 72% | 1014.5 hPa | 0 mm | - | 183 W/m² | - |
| 1777161243 | 15.56° C | 71% | 1014.3 hPa | 0 mm | - | 144 W/m² | - |
| 1777160938 | 15° C | 73% | 1014.3 hPa | 0 mm | - | 174 W/m² | - |
| 1777160634 | 15.56° C | 74% | 1014.5 hPa | 0 mm | - | 141 W/m² | - |
| 1777160330 | 16.11° C | 72% | 1014.3 hPa | 0 mm | - | 168 W/m² | - |
| 1777160026 | 15.56° C | 74% | 1014.5 hPa | 0 mm | - | 252 W/m² | - |
| 1777159722 | 15.56° C | 74% | 1014.2 hPa | 0 mm | - | 252 W/m² | - |
| 1777159418 | 15.56° C | 75% | 1014.2 hPa | 0 mm | - | 276 W/m² | - |
* Rain latest hour (hover to see other rain measurements)
** Current wind speed in m/s (hover to see current wind gust speed)